GW6910 Weather Reports


Display with metric or nautical units.
time (UTC)temp
F
wind
direction
speed
MPH
gust
MPH
rain 1hr
in
rain 24hr
in
rain mn
in
humidity
%
barometer
mb
20260502195508 57 194 0.0 2.0 0.00 0.02 0.02 72 1015.6
20260502195007 57 194 0.0 2.0 0.00 0.02 0.02 73 1015.6
20260502194527 57 194 0.0 2.0 0.00 0.02 0.02 73 1015.6
20260502194009 58 194 0.0 2.0 0.00 0.02 0.02 70 1015.5
20260502193509 58 211 0.0 2.0 0.00 0.02 0.02 70 1015.5
20260502193024 58 152 0.0 2.0 0.00 0.02 0.02 72 1015.6
20260502192515 59 152 0.0 2.0 0.00 0.02 0.02 69 1015.5
20260502192003 60 205 0.0 3.0 0.00 0.02 0.02 64 1015.4
20260502191508 60 272 1.0 3.0 0.00 0.02 0.02 66 1015.4
20260502191004 61 198 0.0 2.0 0.00 0.02 0.02 65 1015.4
20260502190507 61 189 1.0 2.0 0.00 0.02 0.02 65 1015.4
20260502190018 61 227 0.0 2.0 0.00 0.02 0.02 64 1015.3
20260502185504 61 263 0.0 2.0 0.00 0.02 0.02 62 1015.3
20260502185008 62 266 0.0 2.0 0.00 0.02 0.02 63 1015.3
20260502184523 64 266 0.0 2.0 0.00 0.02 0.02 58 1015.3
20260502184009 64 207 0.0 2.0 0.00 0.02 0.02 58 1015.3
20260502183510 64 258 1.0 2.0 0.00 0.02 0.02 58 1015.2
20260502183024 65 234 0.0 2.0 0.00 0.02 0.02 58 1015.2
20260502182507 65 214 0.0 2.0 0.00 0.02 0.02 58 1015.2
20260502182010 65 208 0.0 2.0 0.00 0.02 0.02 58 1015.2
20260502181525 65 231 0.0 2.0 0.00 0.02 0.02 60 1015.2
20260502181010 65 215 0.0 2.0 0.00 0.02 0.02 62 1015.2
20260502180503 65 210 0.0 2.0 0.00 0.02 0.02 61 1015.3
20260502170509 71 193 1.0 3.0 0.00 0.02 0.02 48 1015.4
20260502164007 73 221 0.0 2.0 0.00 0.02 0.02 44 1015.6
20260502163508 74 198 0.0 2.0 0.00 0.02 0.02 43 1015.5
20260502163035 74 196 1.0 3.0 0.00 0.02 0.02 42 1015.6
20260502162508 74 194 0.0 3.0 0.00 0.02 0.02 42 1015.6
20260502162016 74 174 1.0 3.0 0.00 0.02 0.02 41 1015.7
20260502161529 74 228 1.0 6.0 0.00 0.02 0.02 41 1015.7
20260502161009 74 195 2.0 6.0 0.00 0.02 0.02 41 1015.8
20260502160511 75 196 1.0 5.0 0.00 0.02 0.02 39 1015.8
20260502152008 74 306 1.0 4.0 0.00 0.02 0.02 1016.2
20260502151522 75 161 1.0 4.0 0.00 0.02 0.02 1016.3
20260502151009 75 221 1.0 5.0 0.00 0.02 0.02 1016.4
20260502150509 75 200 1.0 6.0 0.00 0.02 0.02 44 1016.5
20260502130508 76 186 3.0 7.0 0.00 0.02 0.02 48 1018.1
20260502123507 75 148 4.0 7.0 0.00 0.02 0.02 46 1018.5
20260502123014 76 184 2.0 5.0 0.00 0.02 0.02 47 1018.5
20260502122506 76 193 2.0 7.0 0.00 0.02 0.02 46 1018.6
20260502122011 75 203 3.0 8.0 0.00 0.02 0.02 47 1018.8
20260502121516 76 220 4.0 8.0 0.00 0.02 0.02 47 1018.8
20260502121007 76 199 1.0 10.0 0.00 0.02 0.02 48 1018.8
20260502120514 75 74 3.0 9.0 0.00 0.02 0.02 45 1018.9
20260502115508 75 92 3.0 10.0 0.00 0.02 0.02 46 1019.2
20260502115011 75 181 6.0 10.0 0.00 0.02 0.02 45 1019.2
20260502114525 75 183 3.0 8.0 0.00 0.02 0.02 45 1019.3
20260502114011 74 219 2.0 9.0 0.00 0.02 0.02 45 1019.4
20260502113510 74 193 3.0 9.0 0.00 0.02 0.02 47 1019.5
20260502113010 74 181 3.0 9.0 0.00 0.02 0.02 46 1019.5
20260502112507 74 227 5.0 9.0 0.00 0.02 0.02 46 1019.6
20260502112007 74 182 2.0 7.0 0.00 0.02 0.02 45 1019.7
20260502111516 73 329 2.0 7.0 0.00 0.02 0.02 47 1019.8
20260502111006 73 329 3.0 9.0 0.00 0.02 0.02 46 1019.8
20260502110508 73 237 4.0 9.0 0.00 0.02 0.02 46 1019.9
20260502110022 73 213 5.0 7.0 0.00 0.02 0.02 46 1020.0
20260502105509 72 165 3.0 8.0 0.00 0.02 0.02 46 1020.0
20260502105008 72 141 3.0 8.0 0.00 0.02 0.02 47 1020.0
20260502104524 72 206 4.0 8.0 0.00 0.02 0.02 46 1020.1
20260502104010 72 206 3.0 7.0 0.00 0.02 0.02 46 1020.2
20260502103511 72 197 3.0 8.0 0.00 0.02 0.02 47 1020.1
20260502103027 71 156 3.0 8.0 0.00 0.02 0.02 47 1020.2
20260502102512 71 177 2.0 7.0 0.00 0.02 0.02 47 1020.3
20260502102007 71 205 3.0 7.0 0.00 0.02 0.02 48 1020.4
20260502101516 70 202 3.0 6.0 0.00 0.02 0.02 52 1020.4
20260502101006 68 51 1.0 2.0 0.00 0.02 0.02 64 1020.4
20260502100509 67 79 1.0 3.0 0.00 0.02 0.02 61 1020.5
20260502091528 61 113 2.0 3.0 0.00 0.02 0.02 71 1020.9
20260502091011 60 12 1.0 3.0 0.00 0.02 0.02 71 1021.0
20260502090507 59 67 2.0 3.0 0.00 0.02 0.02 71 1021.0
20260502071524 52 160 0.0 2.0 0.00 0.00 0.00 66 1021.9
20260502071009 52 188 0.0 2.0 0.00 0.00 0.00 66 1022.1
20260502070517 52 190 1.0 2.0 0.00 0.00 0.00 66 1022.3
20260502070018 51 209 1.0 2.0 0.00 0.00 0.00 68 1022.2
20260502065506 51 199 0.0 2.0 0.00 0.00 0.00 69 1022.0
20260502065006 50 200 0.0 2.0 0.00 0.00 0.00 70 1021.8
20260502064517 50 206 0.0 2.0 0.00 0.00 0.00 70 1021.8
20260502064007 51 175 0.0 2.0 0.00 0.00 0.00 71 1021.7
20260502063509 50 170 0.0 2.0 0.00 0.00 0.00 70 1021.7
20260502063004 49 191 0.0 2.0 0.00 0.00 0.00 71 1021.7
20260502062503 49 232 0.0 2.0 0.00 0.00 0.00 72 1021.8
20260502062002 49 107 0.0 2.0 0.00 0.00 0.00 73 1021.8
20260502061506 48 137 0.0 2.0 0.00 0.00 0.00 74 1021.8
20260502061006 47 61 0.0 2.0 0.00 0.00 0.00 74 1022.1
20260502060502 47 61 0.0 1.0 0.00 0.00 0.00 74 1022.2
20260502060008 47 61 0.0 2.0 0.00 0.00 0.00 75 1022.3
20260502055506 47 61 0.0 2.0 0.00 0.00 0.00 75 1022.4
20260502055006 47 61 1.0 2.0 0.00 0.00 0.00 76 1022.4
20260502054514 46 55 1.0 2.0 0.00 0.00 0.00 75 1022.5
20260502054008 46 74 0.0 2.0 0.00 0.00 0.00 76 1022.6
20260502053506 46 71 0.0 2.0 0.00 0.00 0.00 78 1022.6
20260502053020 46 232 0.0 2.0 0.00 0.00 0.00 78 1022.7
20260502052511 46 51 1.0 2.0 0.00 0.00 0.00 79 1022.7
20260502052011 45 78 0.0 3.0 0.00 0.00 0.00 81 1022.7
20260502051505 45 87 2.0 3.0 0.00 0.00 0.00 80 1022.7
20260502051003 44 84 1.0 2.0 0.00 0.00 0.00 82 1022.7
20260502050503 43 201 0.0 2.0 0.00 0.00 0.00 82 1022.6
20260502050010 43 198 0.0 0.0 0.00 0.00 0.00 82 1022.3
20260502045503 43 199 0.0 0.0 0.00 0.00 0.00 82 1022.3
20260502045006 42 198 0.0 2.0 0.00 0.00 0.00 83 1022.3
20260502044510 42 198 0.0 2.0 0.00 0.00 0.00 85 1022.2
20260502044007 41 199 0.0 2.0 0.00 0.00 0.00 85 1022.2
20260502043507 41 199 0.0 2.0 0.00 0.00 0.00 85 1022.1
20260502043016 41 211 0.0 2.0 0.00 0.00 0.00 85 1022.1
20260502042506 40 211 0.0 2.0 0.00 0.00 0.00 85 1022.1
20260502042010 40 219 0.0 2.0 0.00 0.00 0.00 84 1022.1
20260502041525 40 219 0.0 0.0 0.00 0.00 0.00 84 1022.0
20260502041011 40 219 0.0 2.0 0.00 0.00 0.00 85 1022.0
20260502040510 40 219 0.0 2.0 0.00 0.00 0.00 85 1021.9
20260502040004 40 196 0.0 2.0 0.00 0.00 0.00 84 1021.9
20260502035505 40 248 0.0 2.0 0.00 0.00 0.00 85 1021.9
20260502035007 40 175 0.0 2.0 0.00 0.00 0.00 85 1021.9
20260502034511 40 175 0.0 2.0 0.00 0.00 0.00 85 1022.1
20260502034007 40 109 0.0 2.0 0.00 0.00 0.00 84 1022.0
20260502033508 40 107 0.0 2.0 0.00 0.00 0.00 83 1022.1
20260502033014 41 46 0.0 2.0 0.00 0.00 0.00 83 1022.2
20260502032507 41 46 0.0 2.0 0.00 0.00 0.00 83 1022.2
20260502032009 41 51 1.0 2.0 0.00 0.00 0.00 83 1022.3
20260502031520 41 39 1.0 4.0 0.00 0.00 0.00 84 1022.4
20260502031007 40 339 1.0 4.0 0.00 0.00 0.00 84 1022.6
20260502030511 40 86 0.0 3.0 0.00 0.00 0.00 85 1022.7
20260502030025 40 254 0.0 3.0 0.00 0.00 0.00 84 1022.5
20260502025519 40 127 0.0 2.0 0.00 0.00 0.00 84 1022.5
20260502025010 40 277 0.0 3.0 0.00 0.00 0.00 85 1022.6
20260502024514 40 207 0.0 3.0 0.00 0.00 0.00 84 1022.2
20260502024007 40 167 0.0 2.0 0.00 0.00 0.00 84 1022.2
20260502023505 40 167 0.0 2.0 0.00 0.00 0.00 84 1022.2
20260502023016 40 159 0.0 2.0 0.00 0.00 0.00 85 1022.3
20260502022506 39 159 0.0 2.0 0.00 0.00 0.00 85 1022.3
20260502022005 40 159 0.0 2.0 0.00 0.00 0.00 84 1022.3
20260502021518 40 159 0.0 2.0 0.00 0.00 0.00 85 1022.3
20260502021009 40 125 0.0 2.0 0.00 0.00 0.00 84 1022.3
20260502020507 40 123 0.0 1.0 0.00 0.00 0.00 83 1022.4
20260502020024 40 122 0.0 2.0 0.00 0.00 0.00 84 1022.4
20260502015510 40 123 0.0 2.0 0.00 0.00 0.00 84 1022.4
20260502015012 40 123 0.0 2.0 0.00 0.00 0.00 84 1022.5
20260502014528 40 219 0.0 2.0 0.00 0.00 0.00 83 1022.5
20260502014014 40 219 0.0 2.0 0.00 0.00 0.00 83 1022.5
20260502013504 40 219 0.0 2.0 0.00 0.00 0.00 83 1022.6
20260502013015 40 215 0.0 2.0 0.00 0.00 0.00 84 1022.6
20260502012507 40 215 0.0 2.0 0.00 0.00 0.00 84 1022.6
20260502012010 40 214 1.0 2.0 0.00 0.00 0.00 83 1022.6
20260502011515 40 198 1.0 2.0 0.00 0.00 0.00 84 1022.5
20260502011006 40 154 0.0 0.0 0.00 0.00 0.00 83 1022.5
20260502010513 40 154 0.0 2.0 0.00 0.00 0.00 83 1022.6
20260502010026 40 154 0.0 2.0 0.00 0.00 0.00 82 1022.6
20260502005509 41 148 0.0 2.0 0.00 0.00 0.00 82 1022.7
20260502005013 40 148 0.0 2.0 0.00 0.00 0.00 83 1022.7
20260502004522 40 148 0.0 2.0 0.00 0.00 0.00 82 1022.8
20260502004024 41 148 0.0 2.0 0.00 0.00 0.00 82 1022.7
20260502003510 40 200 1.0 2.0 0.00 0.00 0.00 84 1022.8
20260502003028 40 223 0.0 2.0 0.00 0.00 0.00 83 1022.8
20260502002511 40 223 0.0 2.0 0.00 0.00 0.00 83 1022.8
20260502002005 40 223 0.0 0.0 0.00 0.00 0.00 83 1022.7
20260502001515 40 223 0.0 0.0 0.00 0.00 0.00 83 1022.7
20260502001007 40 223 0.0 0.0 0.00 0.00 0.00 82 1022.7
20260502000507 40 223 0.0 2.0 0.00 0.00 0.00 82 1022.7
20260502000019 40 223 0.0 2.0 0.00 0.00 0.00 82 1022.8
20260501235507 41 223 0.0 2.0 0.00 0.00 0.00 81 1022.8
20260501235014 41 223 0.0 2.0 0.00 0.00 0.00 80 1022.8
20260501234522 41 223 0.0 2.0 0.00 0.00 0.00 81 1022.8
20260501234010 40 223 0.0 2.0 0.00 0.00 0.00 81 1022.9
20260501233512 41 226 0.0 1.0 0.00 0.00 0.00 80 1022.9
20260501233026 41 264 0.0 0.0 0.00 0.00 0.00 80 1022.9
20260501232511 42 264 0.0 2.0 0.00 0.00 0.00 80 1023.0
20260501232013 42 264 0.0 2.0 0.00 0.00 0.00 80 1023.0
20260501231525 42 264 0.0 2.0 0.00 0.00 0.00 80 1023.1
20260501231011 42 269 0.0 0.0 0.00 0.00 0.00 79 1023.0
20260501230504 42 269 0.0 0.0 0.00 0.00 0.00 78 1023.0
20260501230015 42 269 0.0 0.0 0.00 0.00 0.00 78 1023.1
20260501225506 43 269 0.0 0.0 0.00 0.00 0.00 78 1023.1
20260501225010 43 269 0.0 0.0 0.00 0.00 0.00 77 1023.1
20260501224520 43 269 0.0 0.0 0.00 0.00 0.00 77 1023.1
20260501224006 43 269 0.0 0.0 0.00 0.00 0.00 77 1023.1
20260501223510 43 269 0.0 1.0 0.00 0.00 0.00 76 1023.1
20260501223024 43 269 0.0 2.0 0.00 0.00 0.00 76 1023.1
20260501222508 43 269 0.0 2.0 0.00 0.00 0.00 77 1023.2
20260501222020 44 269 0.0 2.0 0.00 0.00 0.00 72 1023.2
20260501221528 46 269 0.0 2.0 0.00 0.00 0.00 68 1023.3
20260501221010 46 269 0.0 2.0 0.00 0.00 0.00 70 1023.4
20260501220511 46 226 0.0 2.0 0.00 0.00 0.00 70 1023.4
20260501220026 45 200 0.0 2.0 0.00 0.00 0.00 73 1023.4
20260501215511 46 192 0.0 2.0 0.00 0.00 0.00 71 1023.3
20260501215007 46 192 0.0 2.0 0.00 0.00 0.00 72 1023.4
20260501214536 46 192 0.0 1.0 0.00 0.00 0.00 72 1023.3
20260501214013 45 192 0.0 2.0 0.00 0.00 0.00 72 1023.3
20260501213507 46 192 0.0 2.0 0.00 0.00 0.00 71 1023.3
20260501213020 46 207 0.0 2.0 0.00 0.00 0.00 70 1023.3
20260501212509 46 202 0.0 2.0 0.00 0.00 0.00 71 1023.2
20260501212008 46 202 0.0 2.0 0.00 0.00 0.00 69 1023.2
20260501211524 47 202 0.0 2.0 0.00 0.00 0.00 69 1023.2
20260501211008 46 202 0.0 2.0 0.00 0.00 0.00 67 1023.1
20260501210510 49 202 0.0 2.0 0.00 0.00 0.00 64 1023.1
20260501210012 49 222 0.0 2.0 0.00 0.00 0.00 64 1023.0
20260501205504 48 225 0.0 2.0 0.00 0.00 0.00 66 1023.1
20260501205007 48 223 1.0 2.0 0.00 0.00 0.00 66 1023.1
20260501204516 48 199 0.0 2.0 0.00 0.00 0.00 69 1023.0
20260501204006 48 198 0.0 2.0 0.00 0.00 0.00 68 1023.0
20260501203506 49 198 0.0 2.0 0.00 0.00 0.00 65 1023.0
20260501203017 49 198 0.0 0.0 0.00 0.00 0.00 65 1023.1
20260501202507 49 198 0.0 0.0 0.00 0.00 0.00 66 1023.1
20260501202003 49 198 0.0 0.0 0.00 0.00 0.00 65 1023.1
20260501201504 50 198 0.0 0.0 0.00 0.00 0.00 64 1023.1
20260501201004 50 198 0.0 2.0 0.00 0.00 0.00 63 1023.1
20260501200504 50 198 0.0 2.0 0.00 0.00 0.00 62 1023.2
20260501200009 51 198 0.0 2.0 0.00 0.00 0.00 57 1023.0